|
Cosmos 1378 Rocket - Orbit
|
Lone Wolf Observatory;
10:55:37
| Home | Info | Passes |
|
View from above orbital plane
|
View from above satellite
|
Ground track
|
The orbit data is extracted from the following two-line orbital elements,
1 13272U 82059B 13139.47721248 .00000458 00000-0 52479-4 0 4501
2 13272 082.5112 098.1422 0018535 359.4883 000.6309 14.83639741670922
| Epoch (UTC): | 19 May 2013 11:27:11 |
| Eccentricity: | 0.0018535 |
| inclination: | 82.5112° |
| perigee height: | 605 km |
| apogee height: | 631 km |
| right ascension of ascending node: | 98.1422° |
| argument of perigee: | 359.4883° |
| revolutions per day: | 14.83639741 |
| mean anomaly at epoch: | 0.6309° |
| orbit number at epoch: | 67092 |
The dashed part of the orbit path shows where the satellite is in the earth's shadow,
|
|